Regional Weather Roundup
Issued by NWS

Home | Current Version | Previous Version | Graphics & Text | Print | Product List | Glossary On
Versions: 1 2 3 4 5 6 7 8 9 10 11 12 13 14 15 16 17 18 19 20 21 22 23 24 25 26 27 28 29 30 31 32 33 34 35 36 37 38 39 40 41 42 43 44 45 46 47 48 49 50
000
ASUS43 KLOT 161700
RWRIL

ILLINOIS REGIONAL WEATHER ROUNDUP
NATIONAL WEATHER SERVICE CHICAGO/ROMEOVILLE IL
1200 PM CDT WED APR 16 2014

NOTE: "FAIR" INDICATES FEW OR NO CLOUDS BELOW 12,000 FEET WITH NO
SIGNIFICANT WEATHER AND/OR OBSTRUCTIONS TO VISIBILITY.

* THESE STATIONS ARE NOT UNDER NWS QUALITY CONTROL. THEY ALSO MAY NOT
  REPORT WEATHER SUCH AS PRECIPITATION OR FOG.

ILZ001-002-007-009-015-016-024-161800-
NORTHWEST ILLINOIS

CITY           SKY/WX    TMP DP  RH WIND       PRES   REMARKS
MOLINE         MOSUNNY   53  27  36 SE24G30   30.12F
STERLING*      PTSUNNY   48  28  46 SE18G26   30.17F
$$

ILZ003-004-008-010-011-017-018-161800-
NORTH CENTRAL ILLINOIS

CITY           SKY/WX    TMP DP  RH WIND       PRES   REMARKS
ROCKFORD       CLOUDY    47  28  47 S29G36    30.22F
$$

ILZ005-006-012>014-019>023-161800-
NORTHEAST ILLINOIS

CITY           SKY/WX    TMP DP  RH WIND       PRES   REMARKS
CHICAGO-OHARE  CLOUDY    45  24  43 S20       30.26F
CHICAGO-MIDWAY PTSUNNY   45  25  45 S21G29    30.28F
AURORA         PTSUNNY   46  28  49 S21G33    30.24F
WAUKEGAN       CLOUDY    39  27  62 SE18G26   30.26F WCI  30
DUPAGE AIRPORT PTSUNNY   47  27  45 S17G28    30.25F
WHEELING       CLOUDY    45  25  45 S17G28    30.28F
NORTHERLY ISL    N/A     43  29  58 SE22        N/A
$$

LMZ740>746-161800-
SOUTHERN LAKE MICHIGAN

STATION/POSITION SKY/WX   TEMP    WIND        PRES    VSBY  WAVE
                          AIR SEA DIR/SP/G                  HT/PER
                          (F)     (DEG/KT/KT) (MB)    (MI)  (FT/S)
WAUKEGAN HARBOR            39     140/ 20/ 24 1026.4S
HARRISON CRIB              38     160/ 19/ 24   N/A
BURNHAM HARBOR             42     130/ 17       N/A
CALUMET HARBOR             41     140/ 13/ 19 1026.9F
MICHIGAN CITY              40     140/ 12/ 18   N/A
$$

ILZ025>027-034>036-040-047-049-050-058-095>099-161800-
WEST-CENTRAL ILLINOIS

CITY           SKY/WX    TMP DP  RH WIND       PRES   REMARKS
QUINCY         SUNNY     52  27  38 S21G28    30.12F
$$

ILZ028>032-037-038-041>044-048-051>054-059>061-161800-
CENTRAL ILLINOIS

CITY           SKY/WX    TMP DP  RH WIND       PRES   REMARKS
DECATUR        SUNNY     49  28  44 S17G28    30.28F
PEORIA         SUNNY     50  26  39 S22G32    30.20F
SPRINGFIELD    SUNNY     52  27  38 SE26G33   30.24F
TAYLORVILLE    NOT AVBL
$$

ILZ033-039-045-046-055>057-062-063-161800-
EAST-CENTRAL ILLINOIS

CITY           SKY/WX    TMP DP  RH WIND       PRES   REMARKS
CHAMPAIGN      SUNNY     48  29  47 SE23      30.28F
MATTOON        SUNNY     45  27  49 S14G22    30.29F
$$

ILZ079-100>102-161800-
SOUTHWEST ILLINOIS

CITY           SKY/WX    TMP DP  RH WIND       PRES   REMARKS
BELLEVILLE     MOSUNNY   52  28  40 SE15G24   30.25F
CAHOKIA*       SUNNY     50  29  44 SE22G28   30.24F
$$

ILZ064>066-069>071-074>076-080>082-084>086-088>090-092>094-161800-
SOUTH-CENTRAL ILLINOIS

CITY           SKY/WX    TMP DP  RH WIND       PRES   REMARKS
CARBONDALE     PTSUNNY   50  27  40 SE16      30.29F
MARION         PTSUNNY   50  27  40 SE15      30.30F
MT. VERNON     MOSUNNY   48  23  37 SE14      30.31F
$$

ILZ067-068-072-073-078-083-087-091-161800-
SOUTHEAST ILLINOIS

CITY           SKY/WX    TMP DP  RH WIND       PRES   REMARKS
ROBINSON*      MOSUNNY   48  30  49 SE13G21   30.35F
$$

ABBREVIATIONS USED IN REMARKS
   TC - TEMPERATURE IN CELSIUS
  WCI - WIND CHILL INDEX
   HX - HEAT INDEX
  VSB - VISIBILITY
$$




USA.gov is the U.S. government's official web portal to all federal, state and local government web resources and services.